Marshalltown, IA

7:01 AM CDT on August 22, 2017 (GMT -0500)
Marshalltown Municipal

Weather History for KMIW - January, 2014

Change the Weather History Date:

Monday, January 27, 2014

  Actual Average Record
Temperature  
Mean Temperature -3 °F 20 °F  
Max Temperature 2 °F 29 °F 55 °F (2002)
Min Temperature -9 °F 10 °F -9 °F (2000)
Degree Days  
Heating Degree Days 68 46  
Month to date heating degree days 1404 1242  
Since 1 July heating degree days 4408 4054  
Cooling Degree Days 0 0  
Month to date cooling degree days 0 0  
Year to date cooling degree days 0 0  
Moisture  
Dew Point -12 °F    
Average Humidity 70    
Maximum Humidity 83    
Minimum Humidity 57    
Precipitation  
Precipitation T in 0.04 in 0.28 in (2013)
Month to date precipitation 0.07 0.71  
Sea Level Pressure  
Sea Level Pressure 30.38 in    
Wind  
Wind Speed 16 mph (NW)    
Max Wind Speed 38 mph    
Max Gust Speed 45 mph    
Visibility 10 miles    
Events Snow    
T = Trace of Precipitation, MM = Missing Value Source: NWS Daily Summary

Daily Weather History Graph

Daily Weather History Graph

Search for Another Location

Airport or City:

Trip Planner

Search our weather history database for the weather conditions in past years. The results will help you decide how hot, cold, wet, or windy it might be!

Date:

Astronomy

Jan. 27, 2014 Rise Set
Actual Time 7:29 AM CST 5:19 PM CST
Civil Twilight 6:59 AM CST 5:50 PM CST
Nautical Twilight 6:25 AM CST 6:23 PM CST
Astronomical Twilight 5:52 AM CST 6:56 PM CST
Moon 4:11 AM CST (1/27) 2:05 PM CST (1/27)
Length of Visible Light 10h 50m
Length of Day
9h 50m
Waning Crescent, 14% of the Moon is Illuminated
Jan 27
Waning Crescent
Jan 30
New
Feb 6
First Quarter
Feb 14
Full
Feb 22
Last Quarter

Hourly Weather History & Observations

Time (CST) Temp. Windchill Dew Point Humidity Pressure Visibility Wind Dir Wind Speed Gust Speed Precip Events Conditions
12:15 AM -0.0 °F -26.6 °F -9.9 °F 63% 30.15 in 10.0 mi NW 32.2 mph 44.9 mph N/A   Mostly Cloudy
12:23 AM -0.9 °F -25.5 °F -11.0 °F 62% 30.15 in 10.0 mi NW 25.3 mph 43.7 mph N/A   Scattered Clouds
12:31 AM -0.0 °F -24.7 °F -8.0 °F 69% 30.16 in 7.0 mi NW 26.5 mph 33.4 mph 0.00 in Snow Light Snow
12:53 AM -0.9 °F -27.5 °F -11.0 °F 62% 30.21 in 10.0 mi NW 31.1 mph 44.9 mph 0.00 in   Mostly Cloudy
1:02 AM -0.9 °F -27.1 °F -11.0 °F 62% 30.16 in 10.0 mi NW 29.9 mph 40.3 mph N/A   Scattered Clouds
1:13 AM -0.9 °F -25.5 °F -9.9 °F 66% 30.17 in 10.0 mi WNW 25.3 mph 40.3 mph N/A   Mostly Cloudy
1:53 AM -2.0 °F -24.4 °F -9.9 °F 69% 30.26 in 10.0 mi NW 19.6 mph 36.8 mph N/A   Mostly Cloudy
2:53 AM -2.9 °F -29.0 °F -13.0 °F 62% 30.30 in 10.0 mi WNW 27.6 mph 39.1 mph N/A   Mostly Cloudy
3:02 AM -2.9 °F -29.0 °F -11.9 °F 65% 30.24 in 10.0 mi NW 27.6 mph 35.7 mph N/A   Scattered Clouds
3:13 AM -2.9 °F -28.1 °F -11.0 °F 68% 30.24 in 10.0 mi NW 25.3 mph - N/A   Mostly Cloudy
3:44 AM -2.9 °F -27.2 °F -11.9 °F 65% 30.24 in 10.0 mi NW 23.0 mph 33.4 mph N/A   Scattered Clouds
3:53 AM -2.9 °F -29.4 °F -11.9 °F 65% 30.31 in 10.0 mi NW 28.8 mph 34.5 mph N/A   Partly Cloudy
4:53 AM -4.0 °F -30.4 °F -13.0 °F 65% 30.32 in 10.0 mi NW 27.6 mph 39.1 mph N/A   Clear
5:22 AM -4.0 °F -30.0 °F -11.9 °F 69% 30.28 in 10.0 mi NW 26.5 mph 34.5 mph N/A   Mostly Cloudy
5:53 AM -5.1 °F -30.5 °F -13.0 °F 69% 30.37 in 10.0 mi NW 24.2 mph - N/A   Overcast
6:33 AM -6.0 °F -31.7 °F -16.1 °F 62% 30.32 in 10.0 mi NW 24.2 mph 29.9 mph N/A   Partly Cloudy
6:53 AM -7.1 °F -29.8 °F -16.1 °F 65% 30.40 in 10.0 mi NW 17.3 mph - N/A   Clear
7:53 AM -7.1 °F -29.1 °F -14.1 °F 72% 30.42 in 10.0 mi WNW 16.1 mph - N/A   Clear
8:53 AM -5.1 °F -29.0 °F -13.0 °F 69% 30.45 in 10.0 mi NW 20.7 mph - N/A   Partly Cloudy
9:07 AM -5.1 °F -27.2 °F -11.9 °F 72% 30.38 in 10.0 mi NW 17.3 mph - N/A   Mostly Cloudy
9:53 AM -2.9 °F -26.7 °F -13.0 °F 62% 30.48 in 10.0 mi NW 21.9 mph 31.1 mph N/A   Mostly Cloudy
10:19 AM -4.0 °F -29.1 °F -9.9 °F 76% 30.41 in 2.0 mi NW 24.2 mph 29.9 mph 0.00 in Snow Light Snow
10:27 AM -4.0 °F -30.4 °F -13.0 °F 65% 30.41 in 9.0 mi NW 27.6 mph 32.2 mph 0.00 in   Overcast
10:53 AM -2.9 °F -27.2 °F -11.9 °F 65% 30.50 in 10.0 mi NW 23.0 mph 28.8 mph 0.00 in   Mostly Cloudy
11:29 AM -2.9 °F -29.4 °F -14.1 °F 59% 30.42 in 10.0 mi NW 28.8 mph - N/A   Partly Cloudy
11:53 AM -2.0 °F -26.0 °F -13.0 °F 60% 30.50 in 10.0 mi NW 23.0 mph - N/A   Partly Cloudy
12:53 PM -0.0 °F -21.8 °F -11.0 °F 60% 30.48 in 10.0 mi WNW 19.6 mph - N/A   Partly Cloudy
1:08 PM -0.9 °F -23.0 °F -11.0 °F 62% 30.40 in 10.0 mi NW 19.6 mph 26.5 mph N/A   Mostly Cloudy
1:53 PM 1.0 °F -20.9 °F -9.9 °F 60% 30.48 in 10.0 mi NW 20.7 mph 27.6 mph N/A   Scattered Clouds
2:53 PM 1.0 °F -18.7 °F -9.9 °F 60% 30.49 in 10.0 mi NNW 16.1 mph - N/A   Partly Cloudy
3:53 PM 1.0 °F -19.3 °F -11.0 °F 57% 30.50 in 10.0 mi NW 17.3 mph - N/A   Clear
4:53 PM -0.0 °F -18.0 °F -11.0 °F 60% 30.51 in 10.0 mi NW 12.7 mph - N/A   Clear
5:53 PM -2.0 °F -16.6 °F -11.0 °F 66% 30.52 in 10.0 mi NNW 8.1 mph - N/A   Clear
6:53 PM -4.0 °F -19.0 °F -11.0 °F 72% 30.54 in 10.0 mi NW 8.1 mph - N/A   Clear
7:53 PM -6.0 °F -18.6 °F -11.0 °F 79% 30.54 in 10.0 mi NW 5.8 mph - N/A   Clear
8:53 PM -5.1 °F -17.6 °F -11.0 °F 76% 30.53 in 10.0 mi NW 5.8 mph - N/A   Clear
9:53 PM -7.1 °F - -11.9 °F 79% 30.54 in 10.0 mi Calm Calm - N/A   Clear
10:53 PM -7.1 °F -15.9 °F -11.9 °F 79% 30.53 in 10.0 mi WSW 3.5 mph - N/A   Clear
11:53 PM -8.0 °F -21.0 °F -13.0 °F 79% 30.53 in 10.0 mi West 5.8 mph - N/A   Clear